Notices

What's New in latest Release from April 7th, 2021:

- Updated Glossary, including Speed of Maximum Gust, and Total Hourly Precipitation

- Updated national and regional climate services offices contacts and prices information

- Addition of station inventory lists for 1981-2010, 1971-2000, and 1961-1990 Normals.

If you haven't already, please take our survey and provide feedback about our website: https://eccc.sondage-survey.ca/f/LanguageSelection.aspx?s=442ca660-fcf1-47c0-95a9-59707d6fd709

Hourly Data Report for April 09, 2021

OTTAWA INTL A
ONTARIO
Current Station Operator: NAVCAN

45°19'00.000" N
75°40'00.000" W
114.90 m
6106001
71628
YOW

Download Data

Hourly Data (April 2021)
Hourly Data Report for April 9, 2021
TIME
LST
Temp Definition
°C
Dew Point Definition
°C
Rel Hum Definition
%
Precip. Amount Definition
mm

Wind Dir Definition
10's deg

Wind Spd Definition
km/h
Visibility Definition
km
Stn Press Definition
kPa
Hmdx Definition


Wind Chill Definition


Weather Definition


00:00 12.2 6.3 67   8 18 24.1 100.20     LegendNANA
01:00 11.2 6.1 71   7 20 24.1 100.18     Clear
02:00 10.7 5.9 72   8 18 24.1 100.16     LegendNANA
03:00 9.6 5.7 77   8 14 24.1 100.18     LegendNANA
04:00 7.5 5.0 84   11 6 24.1 100.18     Clear
05:00 7.7 5.2 84   8 10 24.1 100.20     LegendNANA
06:00 8.0 5.5 84   7 11 24.1 100.28     LegendNANA
07:00 10.1 6.2 76   8 15 24.1 100.32     Mainly Clear
08:00 14.5 7.2 61   11 14 24.1 100.33     LegendNANA
09:00 17.7 7.5 51   12 18 24.1 100.32     LegendNANA
10:00 19.5 6.2 41   18 18 24.1 100.31     Mainly Clear
11:00 20.9 6.8 39   17 22 24.1 100.26     LegendNANA
12:00 21.5 6.6 38   16 19 24.1 100.19     LegendNANA
13:00 22.7 7.3 37   18 20 24.1 100.18     Mainly Clear
14:00 22.7 8.0 38   21 11 24.1 100.14     LegendNANA
15:00 19.8 7.5 44   21 22 24.1 100.15     LegendNANA
16:00 20.5 7.4 42   20 22 24.1 100.14     Mostly Cloudy
17:00 18.6 7.9 49   22 11 24.1 100.14     LegendNANA
18:00 17.6 7.7 52   18 5 24.1 100.12     LegendNANA
19:00 15.5 7.7 59   26 8 24.1 100.15     Mostly Cloudy
20:00 15.6 7.3 57   20 6 24.1 100.18     LegendNANA
21:00 14.5 7.5 62   19 4 24.1 100.16     LegendNANA
22:00 13.4 7.4 67   11 5 24.1 100.11     Mainly Clear
23:00 12.5 7.5 71   11 9 24.1 100.08     LegendNANA

Notes on Data Quality.

Legend

  • E = Estimated
  • M = Missing
  • NA = Not Available*
  • [empty] = Indicates an unobserved value
Date modified: